Regional Weather Roundup
Issued by NWS

Home | Current Version | Previous Version | Graphics & Text | Print | Product List | Glossary On
Versions: 1 2 3 4 5 6 7 8 9 10 11 12 13 14 15 16 17 18 19 20 21 22 23 24 25 26 27 28 29 30 31 32 33 34 35 36 37 38 39 40 41 42 43 44 45 46 47 48 49 50
075
ASUS45 KTFX 201710
RWRMT
MONTANA REGIONAL WEATHER ROUNDUP
NATIONAL WEATHER SERVICE GREAT FALLS MT
1100 AM MDT WED SEP 20 2017

NOTE: "FAIR" INDICATES FEW OR NO CLOUDS BELOW 12000 FEET WITH NO
SIGNIFICANT WEATHER AND/OR OBSTRUCTIONS TO VISIBILITY.

MTZ001>007-043-201800-
WEST OF THE DIVIDE

CITY           SKY/WX    TMP DP  RH WIND       PRES   REMARKS
KALISPELL      MOSUNNY   48  40  73 S9        29.58F
MISSOULA       LGT RAIN  41  39  93 S5        29.64R
BUTTE          LGT RAIN  37  34  89 E8        29.64F WCI  31
MULLAN PASS    SNOW      31  30  96 CALM      29.59R VSB 1/4
ANACONDA         N/A     36  34  93 SE10      29.64F WCI  28
DEER LODGE       N/A     37  36  93 S7        29.65S
EUREKA           N/A     46  36  66 CALM      29.57F
HAMILTON         N/A     39  37  93 S5        29.63S
LIBBY            N/A     45  39  81 CALM      29.59S
$$

MTZ008-052>055-201800-
SOUTHWEST MONTANA

CITY           SKY/WX    TMP DP  RH WIND       PRES   REMARKS
BOZEMAN        CLOUDY    47  37  68 N5        29.65S
DILLON         CLOUDY    51  29  42 S21G29    29.64F
W YELLOWSTONE  CLOUDY    36  30  80 SW10      29.80F WCI  28
ENNIS          CLOUDY    46  30  53 S29G37    29.73F
$$

MTZ009-010-012-014-046-048-049-054-201800-
EAST SLOPES AND CENTRAL MONTANA

CITY           SKY/WX    TMP DP  RH WIND       PRES   REMARKS
CUT BANK       MOSUNNY   50  28  42 SW30G39   29.48F
GREAT FALLS    SUNNY     51  29  42 SW20G32   29.54F
HELENA         CLOUDY    47  35  63 W6        29.62S
CHOTEAU          N/A     52  27  37 SW23G30   29.52F
RAYNESFORD     PTSUNNY   49  30  47 SW18G28   29.56S
$$

MTZ011-013-016-021-045-047-050-051-201800-
NORTH CENTRAL MONTANA

CITY           SKY/WX    TMP DP  RH WIND       PRES   REMARKS
HAVRE          SUNNY     57  29  34 SW25G36   29.48F
LEWISTOWN      CLOUDY    51  28  41 SW20G30   29.59F
N BAR RANCH      N/A     50  23  34 SW16G23   29.62F
CHINOOK          N/A     57  28  33 SW25G31   29.49F
GEYSER           N/A     51  28  41 W28G38    29.53F
JUDITH GAP       N/A     48  28  46 SW20G29   29.60F
$$

MTZ017>020-022>027-061-062-201800-
NORTHEAST MONTANA

CITY           SKY/WX    TMP DP  RH WIND       PRES   REMARKS
GLASGOW        SUNNY     59  31  34 SW17      29.55F
JORDAN           N/A     59  32  36 SW20      29.59F
SIDNEY         SUNNY     59  40  49 S18G24    29.62F
WOLF POINT     SUNNY     60  35  39 SW12      29.58F
MALTA          SUNNY     59  28  31 W20G29    29.52F
PLENTYWOOD       N/A     55  34  44 SW14      29.56F
POPLAR           N/A     57  36  44 SW15G21   29.59S
$$

MTZ028>42-056>058-201800-
SOUTHCENTRAL AND SOUTHEAST MONTANA

CITY           SKY/WX    TMP DP  RH WIND       PRES   REMARKS
BAKER          SUNNY     61  32  33 SW20G28   29.71F
BILLINGS       PTSUNNY   58  28  32 SW15G25   29.65F
LIVINGSTON     CLOUDY    52  27  38 SW26G39   29.63R
MILES CITY     SUNNY     61  31  32 SW16G23   29.66F
BIG TIMBER     PTSUNNY   54  25  32 SW17      29.67S
LAUREL           N/A     59  32  36 SW16G23   29.66F
$$

REGIONAL REPORTS...DAKOTAS

CITY           SKY/WX    TMP DP  RH WIND       PRES   REMARKS
WILLISTON      SUNNY     57  41  55 S13       29.61S
MINOT          SUNNY     61  43  51 S20G26    29.61S
DICKINSON      SUNNY     60  37  42 SW17G29   29.69F
BEACH            N/A     59  34  38 W17       29.71F
CROSBY           N/A     57  39  51 SW15G24   29.58S
TIOGA            N/A     55  41  58 SW21      29.62S
WATFORD CITY     N/A     59  37  44 SW17      29.63S
BISMARCK       SUNNY     63  44  50 SW14G20   29.73R
GRAND FORKS    SUNNY     66  44  45 W13G21    29.68S
FARGO          SUNNY     66  45  46 W14       29.74S
BUFFALO SD       N/A     61  37  41 SW15      29.69F
RAPID CITY     SUNNY     59  34  38 SW5       29.83S
$$

REGIONAL REPORTS...WYOMING/IDAHO/WASHINGTON

CITY           SKY/WX    TMP DP  RH WIND       PRES   REMARKS
GILLETTE       SUNNY     57  26  30 SW23G32   29.79F
SHERIDAN       SUNNY     61  22  22 W5        29.72F
BUFFALO WY     SUNNY     56  22  26 S17G23    29.78F
CODY           SUNNY     54  25  32 W17G26    29.76F
IDAHO FALLS    PTSUNNY   56  33  42 S20G28    29.81F
SALMON         CLOUDY    52  35  52 S20       29.65F
BOISE          PTSUNNY   59  35  40 SE18G26   29.70F
SPOKANE        CLOUDY    45  42  89 S7        29.62S
$$

REGIONAL REPORTS...ALBERTA

CITY           SKY/WX    TMP DP  RH WIND       PRES   REMARKS
EDMONTON       CLOUDY    41  39  93 N9        29.33R
CALGARY        PTSUNNY   45  28  53 N5        29.37S
LETHBRIDGE     MOSUNNY   54  23  30 W29G39    29.40S
MEDICINE HAT   MOSUNNY   57  28  33 SW24G35   29.38F
$$

REGIONAL REPORTS...SASKATCHEWAN

CITY           SKY/WX    TMP DP  RH WIND       PRES   REMARKS
SWIFT CURRENT  SUNNY     55  28  35 W17G26    29.41S
REGINA         MOSUNNY   55  37  50 SW17      29.45S
SASKATOON      MOSUNNY   50  36  57 SW3       29.39S
$$




USA.gov is the U.S. government's official web portal to all federal, state and local government web resources and services.